Regional Weather Roundup
Issued by NWS Midland/Odessa, TX

Skip options and go directly to product.
Home | Oldest Version | Next Version | Current Version | All | Text Only | Save Text | Print | Product List | Glossary On

Skip product version selection by date and time.   
587
ASUS44 KMAF 291610
RWRMAF
MIDLAND AREA WEATHER ROUNDUP
NATIONAL WEATHER SERVICE MIDLAND TX
1100 AM CDT MON AUG 29 2016

...IN SOUTHWEST TEXAS AND SOUTHEAST NEW MEXICO...

CITY           SKY/WX    TMP DP  RH WIND       PRES   REMARKS
ALPINE         CLOUDY    69  60  74 E3        30.28S
ANDREWS        CLOUDY    68  68 100 NE6       30.19R
ARTESIA        SUNNY     73  59  60 VRB5      30.22R
BIG SPRING     CLOUDY    78  72  81 NE10      30.18S
CARLSBAD       MOSUNNY   72  60  66 NE5       30.19R
DRYDEN           N/A     75  69  81 NE9       30.11R
FORT STOCKTON  CLOUDY    73  63  70 CALM      30.17R
GUAD PASS      SUNNY     69  56  62 NE15      30.29R
HOBBS          PTSUNNY   68  68 100 NE12      30.22R
MARFA          CLOUDY   N/A N/A N/A NE8       30.26R
MIDLAND AIRPK  CLOUDY    77  68  72 E12       30.16S
MIDLAND INTL   CLOUDY    75  67  76 E12       30.15S
ODESSA         CLOUDY    75  67  76 E13       30.17R
PECOS          CLOUDY    72  62  70 N6        30.17R
PRESIDIO       FAIR      74  65  73 W5        30.13R
SEMINOLE       CLOUDY    69  65  87 NE9       30.21R
SNYDER           N/A     78  68  72 NE8       30.17S
WINK           CLOUDY    70  63  78 CALM      30.16R
$$
...OTHER STATIONS IN TEXAS...

CITY           SKY/WX    TMP DP  RH WIND       PRES   REMARKS
ABILENE        PTSUNNY   78  68  71 E9        30.15R
AMARILLO       PTSUNNY   74  63  68 CALM      30.25R
AUSTIN         LGT RAIN  77  74  90 N10       30.04S
BROWNSVILLE    MOSUNNY   93  73  52 NW9       29.93R HX 102
CORPUS CHRISTI NOT AVBL
DALLAS FTW     MOSUNNY   87  72  60 N6        30.09S
DEL RIO        MOSUNNY   82  71  69 VRB3      30.04R
EL PASO        NOT AVBL
HOUSTON INT    PTSUNNY   81  73  76 E10       29.99S
LUBBOCK        CLOUDY    72  62  71 NE8       30.22R
SAN ANGELO     MOSUNNY   80  69  69 NE6       30.12R
SAN ANTONIO    NOT AVBL
WACO           MOSUNNY   84  74  71 NE12      30.06F
WICHITA FALLS  NOT AVBL
$$
...OTHER LOCATIONS IN NEW MEXICO...

CITY           SKY/WX    TMP DP  RH WIND       PRES   REMARKS
ALAMAGORDO     SUNNY     73  54  49 CALM      30.22R
ALBUQUERQUE    MOSUNNY   71  46  40 W6        30.30R
CANNON AFB     DRIZZLE   67  64  89 N10       30.27R
CLOVIS         CLOUDY    66  61  82 N10       30.27R
HOLLOMAN AFB   SUNNY     74  58  55 VRB5      30.19S
ROSWELL        NOT AVBL
RUIDOSO          N/A     59  54  82 CALM      30.40S
SANTA FE       CLOUDY    66  46  48 N12       30.37R
TRUTH OR CONSE MOSUNNY   72  47  40 W5        30.24S
TUCUMCARI      CLOUDY    69  61  75 NW3       30.26S
$$

USA.gov is the U.S. government's official web portal to all federal, state and local government web resources and services.